User: anonymous   Login
Location: Nebula Knoll Observatory
(43.6666°N, 71.0000°W)
Time: 10:54:23
(UTC-05:00)
Language:

SeaSat 1 - Orbit

View from above orbital plane
View from above orbital plane
View from above satellite
View from above satellite

Ground track
Ground track

The orbit data is extracted from the following two-line orbital elements,

1 10967U 78064A   17051.08797577 -.00000025  00000-0  33027-4 0  9999
2 10967 108.0134  54.7362 0001440 287.2099  72.8888 14.43622318 29708
Epoch (UTC): 20 February 2017 02:06:41
Eccentricity: 0.0001440
inclination: 108.0134°
perigee height: 745 km
apogee height: 747 km
right ascension of ascending node: 54.7362°
argument of perigee: 287.2099°
revolutions per day: 14.43622318
mean anomaly at epoch: 72.8888°
orbit number at epoch: 2970

The dashed part of the orbit path shows where the satellite is in the earth's shadow,  

DLR